Location: Saint-Hippolyte
(43.6394°N, 4.7559°E)
Time: 16:08:59
(UTC+00:00)

Cosmos 1328 - Pass Details

Date: 24 October 2020
Orbit: 533 x 550 km, 82.5° (Epoch: 23 November)

Event Time Altitude Azimuth Distance (km) Brightness Sun altitude
Rises 17:16:24 0° 353° (N) 2,691 7.3 -6.8°
Reaches altitude 10° 17:18:33 10° 355° (N) 1,796 6.4 -7.1°
Maximum altitude 17:22:30 77° 81° (E) 553 3.7 -7.8°
Drops below altitude 10° 17:26:25 10° 168° (SSE) 1,784 6.4 -8.5°
Sets 17:28:34 0° 170° (S) 2,672 7.3 -8.9°
